Theta_e
290 290 292 292 293 293 295 297 298 299 299 300 301 302 303 303 304 304 305 305 305 305 305 305 305 306 306 308 309 311 312 314 316 316 317 319 320 321 322 321 321 321 321 321 322 322 323 323 324 324 324 324 324 324 324 324 325 326 326 327 328 328 328 328 328 328 328 328 329 329 330 332 333 335 336 337 337 338 338 338 337 337 336 336 336 335
290 291 291 292 293 295 297 297 298 299 299 299 300 301 302 302 303 303 305 305 305 305 305 305 305 305 306 307 308 311 312 314 315 316 317 318 319 321 322 321 321 320 320 321 321 322 322 322 323 323 323 323 323 323 323 324 324 325 325 326 327 327 327 328 328 328 328 328 328 329 329 331 332 334 335 336 337 337 337 337 336 336 336 335 335 335
289 290 291 293 295 297 297 296 297 299 300 300 300 301 302 301 302 303 304 305 305 305 305 305 305 305 306 307 309 310 312 314 315 316 316 317 319 320 321 321 321 321 320 321 321 321 322 322 322 322 322 322 323 322 322 323 323 324 324 325 325 325 326 326 326 327 327 328 328 329 329 330 332 334 334 335 336 336 336 335 335 335 335 335 335 335
289 289 291 293 296 297 297 296 297 299 300 301 301 302 302 302 302 303 304 304 304 304 305 305 306 306 306 307 308 310 312 313 315 315 316 317 318 319 321 321 321 321 321 321 321 321 321 321 321 321 321 322 322 322 322 322 322 323 323 323 324 324 324 324 324 325 326 326 327 328 329 330 332 333 333 334 334 334 334 334 334 334 335 335 334 334
289 290 291 293 295 295 296 296 297 299 300 301 301 301 301 301 302 302 303 303 303 304 304 305 306 306 306 307 308 310 311 313 314 315 316 316 317 319 320 321 321 321 321 321 321 321 321 321 321 321 321 321 321 321 321 321 321 322 322 322 322 322 323 323 323 323 324 325 326 327 328 329 330 330 330 331 332 333 334 334 334 335 335 335 334 334
289 290 291 293 294 295 296 296 297 298 299 299 299 299 300 301 301 301 302 302 303 303 304 304 305 305 305 306 307 309 311 312 314 315 315 316 317 319 320 321 321 322 322 321 321 320 320 320 320 320 320 320 321 321 321 321 321 321 321 321 321 321 322 322 322 322 323 323 324 325 326 326 327 327 328 329 331 332 333 334 335 335 335 334 334 333
291 292 293 294 295 296 297 297 296 296 295 296 297 298 300 300 301 301 301 302 302 303 304 304 304 305 305 305 307 308 310 312 313 315 315 316 317 318 319 320 321 322 321 321 320 320 320 320 320 319 319 320 320 320 321 321 320 320 320 320 320 320 321 321 322 322 322 322 323 323 324 324 324 325 325 327 329 330 331 332 334 335 335 334 333 333
291 292 294 295 295 296 296 296 294 292 292 292 294 296 298 299 300 300 301 302 302 303 303 303 304 304 304 305 307 308 309 310 312 313 315 316 316 317 318 320 320 321 321 321 321 320 320 320 319 319 319 319 320 320 320 320 320 319 319 319 319 320 320 321 321 321 321 321 321 322 322 322 323 323 323 325 326 327 329 330 332 333 334 334 333 333
287 288 290 291 291 291 291 291 290 290 290 291 292 293 294 294 296 298 299 301 303 303 304 303 303 303 304 306 307 307 309 310 311 312 314 315 315 316 318 319 320 321 321 321 321 320 320 320 319 319 319 319 319 320 320 319 319 319 319 319 319 319 320 320 321 321 321 321 321 321 321 321 321 321 321 322 323 325 327 328 330 331 332 332 332 332
285 286 287 288 288 288 287 287 287 288 289 290 291 291 291 290 290 291 293 296 298 301 303 304 304 304 305 306 307 308 309 310 312 313 314 315 315 316 317 318 319 320 320 320 320 320 320 320 319 319 319 319 319 319 319 319 319 319 318 318 318 318 319 319 320 321 321 321 321 320 320 320 320 320 320 321 321 323 324 326 327 328 329 329 330 331
284 284 285 286 286 286 286 286 286 287 288 289 289 290 289 288 288 288 288 290 293 296 299 302 303 304 305 306 307 308 309 310 311 313 314 315 315 316 316 317 318 319 320 320 320 320 320 319 319 319 319 319 319 319 319 319 318 318 318 318 317 318 318 319 320 320 321 321 321 321 320 320 320 320 320 320 320 321 322 323 324 325 326 327 327 329
282 283 284 284 284 284 284 285 285 286 286 286 286 286 286 287 287 287 287 288 290 292 294 297 300 302 304 305 307 308 309 309 310 311 312 313 314 315 316 317 317 318 319 319 319 319 319 319 319 318 318 319 319 319 319 318 318 317 317 317 317 317 318 319 319 320 320 321 321 321 321 321 320 320 319 319 319 319 320 320 321 323 324 324 325 326
281 282 282 282 282 282 282 283 283 283 283 283 283 283 283 285 286 287 287 288 289 291 292 294 296 300 303 305 306 307 308 309 309 309 310 311 313 315 316 317 317 318 319 319 319 319 319 318 318 318 318 318 318 318 318 318 317 316 316 316 317 317 318 318 319 319 320 320 321 321 321 321 320 320 320 319 319 319 319 319 320 321 322 323 324 325
280 280 281 281 281 281 281 281 281 281 282 282 282 283 284 285 286 286 287 287 288 290 291 292 295 298 302 305 306 307 308 308 308 308 309 310 311 313 315 316 317 318 319 319 319 319 319 318 318 318 317 318 318 318 317 317 316 316 315 316 316 317 317 318 319 319 320 320 320 320 320 320 320 320 319 319 319 319 319 319 319 320 321 322 323 324
279 279 279 279 279 280 281 281 280 281 281 282 283 284 284 285 285 285 285 286 287 289 290 292 294 297 301 304 306 307 308 307 308 308 308 308 309 312 315 316 316 317 318 318 318 319 319 319 319 319 318 318 318 318 317 317 316 315 315 316 316 317 317 318 319 319 319 319 319 319 319 320 320 320 319 319 319 318 318 318 319 319 320 321 322 323
278 278 278 278 279 279 280 280 281 281 281 282 283 283 283 283 284 284 284 285 286 287 289 290 292 296 300 303 305 306 307 307 307 307 306 306 307 309 312 315 315 316 317 318 318 319 319 319 319 319 319 317 316 316 316 316 316 315 315 315 316 316 317 317 318 319 319 319 319 319 319 319 319 319 319 319 318 318 318 318 319 319 320 321 322 323
278 278 278 278 278 279 280 281 281 281 281 282 283 283 283 283 283 284 284 285 285 286 287 288 290 293 297 300 304 306 308 307 307 306 306 304 305 307 310 313 314 315 316 316 318 318 319 319 319 319 319 317 316 316 316 316 316 315 315 315 316 316 316 316 317 318 319 319 319 319 318 319 319 319 319 318 318 318 318 318 318 319 320 320 321 322
278 277 277 277 278 279 280 280 280 281 281 282 282 283 283 283 283 284 284 284 285 285 286 287 288 290 293 296 301 304 306 304 304 304 305 304 305 306 309 311 313 314 315 316 317 318 319 319 319 319 319 316 316 315 315 316 315 315 315 315 315 315 316 316 317 318 319 319 319 319 318 318 318 318 318 318 318 318 318 318 318 319 319 320 321 322
277 278 278 278 278 279 280 280 280 280 281 281 282 282 282 283 283 283 283 283 284 284 285 285 287 289 291 294 297 300 301 300 301 302 304 304 304 305 308 310 312 313 314 313 313 315 317 319 318 317 316 315 315 315 315 315 315 315 315 315 315 315 315 316 316 317 317 318 319 319 318 318 318 318 318 318 318 318 318 318 319 319 319 320 321 321
277 278 278 278 279 279 279 280 280 281 282 282 283 282 282 282 282 282 282 282 283 284 284 285 286 287 290 292 294 296 297 297 297 299 302 303 303 304 306 308 310 312 311 309 308 310 312 316 318 317 315 315 314 314 314 315 315 315 315 315 315 315 315 315 315 316 316 317 317 318 318 318 318 318 318 318 318 318 318 318 318 319 319 319 319 320
278 278 278 279 279 279 279 280 281 282 283 284 283 282 281 281 281 281 281 282 282 283 283 284 285 287 289 290 291 292 294 294 295 297 301 302 302 303 305 306 306 307 306 306 306 307 309 314 317 319 317 315 314 314 314 314 315 315 315 315 315 314 314 314 315 315 316 316 316 316 316 317 317 317 317 317 317 317 316 317 317 317 317 317 317 317
278 278 279 280 280 280 281 281 282 283 284 284 283 282 281 281 280 280 280 281 281 281 282 283 284 286 287 288 289 290 292 293 294 296 300 300 301 302 304 304 304 304 303 304 305 307 309 312 315 318 317 316 314 314 314 314 314 315 315 315 314 314 314 314 314 315 315 315 316 316 316 316 316 316 316 316 316 316 316 316 316 316 316 315 315 315
279 279 280 280 281 281 282 282 282 283 284 284 284 283 282 281 280 280 280 281 281 281 282 283 284 285 286 287 288 290 292 294 295 297 300 299 299 301 303 304 304 303 302 304 305 307 309 311 314 315 316 315 314 314 314 314 314 314 314 314 314 314 313 314 314 314 315 315 315 316 316 316 316 315 315 315 315 314 314 315 315 315 314 314 314 314
280 280 280 281 281 282 282 282 283 283 284 284 284 284 283 283 282 282 282 282 282 283 283 284 285 285 286 288 290 292 294 296 298 300 301 299 299 300 302 303 303 302 302 304 305 306 308 310 312 314 316 315 314 314 314 314 314 314 314 314 313 313 313 314 314 314 314 315 315 315 315 315 314 314 314 314 313 313 313 313 313 313 313 313 313 312
280 281 281 282 282 283 283 283 283 284 284 284 284 284 283 282 282 282 282 282 282 283 283 283 284 285 287 290 292 294 297 300 301 302 302 299 298 299 301 302 302 302 302 303 304 306 307 308 309 311 315 315 314 313 314 314 314 314 313 313 313 313 313 313 313 314 314 314 314 314 314 314 314 313 313 312 312 312 312 312 312 311 311 311 311 311
282 282 282 283 284 284 284 284 285 285 285 285 284 283 282 281 281 281 281 280 280 280 280 280 281 283 286 289 292 295 298 301 303 303 302 299 298 298 301 302 302 301 301 302 304 305 306 306 307 309 311 314 314 313 313 313 313 313 313 313 313 313 313 313 313 313 313 313 313 313 313 313 312 312 312 311 311 311 311 310 310 310 309 309 309 309
282 283 283 283 284 284 283 284 284 285 286 286 285 284 282 280 279 278 278 278 278 278 278 278 280 282 286 289 292 295 298 300 300 300 301 300 298 298 299 301 301 301 301 302 303 304 305 306 306 307 308 311 313 314 313 313 313 313 313 313 313 313 313 312 312 312 312 312 312 312 312 311 311 311 310 310 310 309 309 309 308 308 308 307 307 308
281 282 282 282 282 282 282 282 283 283 284 285 285 285 282 280 278 277 276 277 278 278 278 278 279 281 284 287 290 294 297 296 295 295 298 300 299 298 299 300 301 301 300 301 303 304 305 304 304 305 306 309 312 313 314 313 313 313 313 313 313 312 312 312 311 311 311 311 311 311 311 310 310 309 309 309 308 308 308 307 306 306 306 305 305 305
280 280 280 281 281 281 281 280 281 282 283 284 284 284 282 279 278 277 277 278 278 277 277 278 278 279 281 283 287 291 295 293 292 292 294 299 299 298 299 300 301 301 301 301 301 301 302 302 302 303 305 307 310 312 313 313 313 313 313 312 312 312 311 311 310 310 310 310 309 309 309 309 309 308 308 307 307 306 306 305 305 304 304 303 303 302
276 277 277 278 278 278 278 278 279 280 282 282 282 282 281 280 278 278 278 278 278 277 277 277 278 278 279 281 284 289 293 292 291 291 293 297 298 298 299 299 300 301 301 300 299 298 298 299 300 301 303 305 307 308 310 311 312 313 312 311 311 310 310 310 309 309 309 309 309 308 308 308 307 307 306 306 305 305 305 305 304 303 302 301 301 301
273 274 274 275 275 276 276 276 277 278 279 280 280 280 280 279 279 279 279 279 278 277 276 277 277 278 278 279 283 287 292 290 290 290 290 295 298 299 299 299 299 301 302 300 298 296 296 297 298 300 302 303 303 304 306 307 309 310 310 310 310 309 309 309 308 308 308 308 308 307 307 306 306 306 305 305 304 304 304 303 303 302 300 300 299 299
273 273 273 274 274 274 275 275 276 276 277 278 278 279 279 279 279 279 279 279 278 278 277 277 277 277 278 278 280 282 287 287 288 289 287 293 297 299 299 298 299 300 302 301 300 298 296 296 297 298 300 301 302 302 303 305 306 307 307 307 307 307 308 307 307 307 307 307 307 306 306 305 305 305 304 304 304 303 303 303 302 301 300 299 298 298
273 273 273 273 274 274 274 274 275 275 276 276 277 277 278 278 279 279 279 279 279 278 278 277 277 277 277 278 278 280 282 284 287 288 287 290 294 298 299 298 298 299 301 301 301 300 297 296 296 297 299 299 300 300 301 303 304 305 305 305 305 305 305 306 306 305 305 305 305 305 304 304 304 304 304 303 303 303 303 302 302 301 300 299 298 298
272 273 273 273 273 273 273 274 274 275 275 276 276 277 277 277 278 278 279 279 279 279 278 278 277 277 277 277 278 279 281 284 287 288 288 287 291 296 298 298 298 298 299 299 299 299 298 297 296 296 296 296 297 297 297 299 301 302 303 302 302 302 303 303 303 302 302 302 302 302 302 302 303 303 302 302 302 302 302 302 301 301 300 299 298 297
272 272 272 272 272 272 273 273 274 274 275 275 276 276 277 277 277 277 278 279 279 279 279 279 279 278 278 277 278 278 280 283 286 288 288 286 289 293 297 297 297 297 298 297 297 297 296 295 295 295 294 294 293 294 294 296 297 299 300 301 300 300 300 300 301 300 300 300 300 300 300 301 301 301 301 301 301 301 301 301 301 300 300 299 298 297
271 271 271 272 272 272 272 273 273 274 274 275 275 276 276 276 277 277 278 278 279 279 280 280 280 280 280 279 279 279 280 282 285 287 288 286 287 291 295 296 297 297 297 296 296 296 295 294 294 294 294 292 291 291 291 293 295 296 297 297 298 298 299 299 299 299 299 299 298 299 299 299 299 299 300 300 300 300 300 300 300 300 299 299 298 297
270 270 271 271 271 271 272 272 272 273 274 274 275 275 276 276 276 277 277 278 279 279 280 280 281 281 282 281 281 281 282 283 285 286 287 286 287 289 294 295 297 297 296 296 295 295 294 293 293 292 292 291 291 290 290 292 293 293 293 295 295 296 297 298 298 298 298 298 298 298 298 298 299 299 299 300 300 300 300 299 299 299 298 298 298 297
270 270 270 271 271 271 271 272 272 273 274 274 275 275 276 276 276 277 277 278 278 279 279 280 280 281 282 283 283 284 284 285 285 286 286 286 286 288 293 295 296 297 297 296 295 294 293 292 291 290 290 290 290 291 291 291 291 291 291 292 293 294 295 296 297 297 297 297 297 298 298 298 298 298 298 298 297 297 297 297 297 297 297 297 296 296
269 269 270 271 271 271 271 272 272 273 274 274 275 276 276 276 277 277 278 278 279 279 280 280 280 280 281 283 284 286 287 287 286 286 286 286 287 290 294 295 295 295 296 296 295 295 293 292 291 290 289 289 289 290 291 291 290 290 290 291 292 292 293 294 295 296 296 296 296 296 296 296 295 295 295 295 295 294 294 294 294 294 294 293 294 294
269 269 270 271 271 271 271 272 273 274 274 275 276 276 276 276 276 277 278 278 279 280 280 280 280 281 283 285 287 287 288 288 288 288 286 286 288 292 296 295 295 294 294 295 295 295 294 292 291 291 290 289 289 289 289 290 290 291 291 290 290 290 291 292 293 293 294 294 294 294 293 293 293 293 293 293 293 293 292 292 292 292 292 291 291 291
269 269 269 270 271 272 272 273 274 274 275 275 275 275 275 275 275 276 277 278 278 279 279 280 280 281 283 285 286 286 287 288 289 290 287 287 290 293 296 295 294 293 293 293 293 294 293 292 291 291 290 290 289 289 290 290 291 292 292 290 289 289 290 291 291 292 292 292 292 292 292 292 292 292 292 292 292 292 292 291 291 291 291 291 290 289
269 269 269 270 271 271 272 273 274 275 275 275 274 274 274 274 275 275 275 276 277 277 278 278 279 280 282 284 285 286 287 288 289 290 289 289 291 293 295 294 293 293 292 292 292 292 293 292 291 291 290 290 290 289 289 290 291 291 291 289 289 289 290 290 291 291 291 291 291 292 292 291 290 290 290 290 290 291 291 291 291 291 290 290 289 288
269 269 270 270 271 272 273 273 274 274 274 274 274 274 274 274 275 275 275 275 276 277 277 277 278 279 280 282 283 284 285 287 288 290 291 291 292 292 293 292 292 292 291 291 291 291 292 292 291 291 291 291 290 288 288 288 288 289 289 290 289 289 287 288 289 290 290 290 290 290 289 288 288 288 287 287 287 288 288 289 290 290 289 288 287 287
269 270 270 271 271 272 272 273 273 273 273 273 273 273 274 274 275 275 275 275 276 276 277 277 277 278 279 280 281 283 284 285 287 288 290 292 292 292 291 290 290 289 289 289 289 290 290 290 291 291 291 290 289 288 287 287 287 287 288 289 289 288 287 287 287 287 287 287 287 287 286 286 285 285 285 285 285 285 285 285 285 285 286 286 285 285
269 270 270 271 271 271 271 271 272 272 273 273 273 273 274 274 275 275 275 275 275 276 276 276 276 277 277 278 279 281 282 283 285 286 288 290 292 292 291 289 289 288 287 287 287 288 289 289 289 290 290 290 289 288 287 287 286 287 287 288 288 287 287 287 286 286 285 285 285 285 285 286 285 284 283 283 283 283 283 284 284 284 284 284 284 285
269 269 270 270 270 270 271 271 271 272 272 272 273 273 274 274 274 275 275 275 275 275 276 276 275 275 275 276 277 278 280 281 283 284 286 287 288 289 290 289 288 287 286 286 286 286 287 289 289 290 289 289 288 287 287 286 285 285 285 286 285 285 285 285 285 285 285 284 284 284 285 285 285 284 282 281 281 282 282 283 283 283 283 284 284 285
269 269 269 269 269 270 270 271 271 271 271 272 272 273 273 274 274 274 274 274 275 275 276 276 275 274 274 275 275 276 277 278 280 282 284 285 286 287 287 288 287 287 286 285 285 285 285 287 288 289 289 287 286 286 286 286 285 285 284 284 284 284 284 284 285 285 285 285 285 285 285 285 283 282 281 281 281 281 281 282 282 283 283 284 284 285
269 269 269 269 269 269 269 270 270 271 271 271 272 272 273 274 274 274 273 274 274 275 275 275 274 274 274 274 275 276 277 277 278 280 281 283 284 285 286 286 286 286 286 286 286 285 285 285 286 287 288 287 285 284 284 285 285 285 284 284 284 283 283 283 284 285 285 285 285 285 285 284 283 282 281 280 280 280 280 281 281 282 283 283 284 284
269 268 269 269 269 269 269 269 270 270 270 271 271 272 272 274 275 274 273 274 274 274 274 274 274 273 273 274 274 275 276 276 277 278 279 281 283 284 285 285 286 286 286 285 285 285 285 285 285 286 286 286 285 284 283 283 284 284 284 284 283 282 282 282 283 284 284 284 285 285 285 284 283 282 281 280 279 279 280 280 281 281 282 283 283 283
269 269 269 269 269 269 269 269 270 270 270 271 271 271 272 273 273 273 273 273 273 274 273 274 274 273 273 273 274 274 275 275 276 277 278 279 281 283 284 285 285 285 285 285 284 284 284 283 284 285 287 287 286 284 283 283 283 283 283 283 283 282 282 281 282 283 283 283 283 284 284 283 283 283 282 280 279 279 279 280 280 281 282 283 283 284
270 269 269 269 269 269 269 269 270 270 270 271 271 271 271 272 272 273 273 273 273 273 273 274 274 274 274 273 274 274 274 274 275 275 276 278 280 281 283 285 285 285 285 284 283 283 282 281 281 281 283 286 287 286 283 282 282 282 281 282 282 282 282 281 281 282 283 282 282 282 283 282 282 282 282 281 280 279 279 279 280 280 281 282 283 284
Wind_Speed
7 8 8 9 7 5 5 4 4 4 4 4 3 2 2 3 3 3 4 4 3 3 3 4 5 6 9 13 16 18 20 20 19 19 19 18 16 13 10 10 11 12 12 11 10 10 10 10 11 11 12 13 13 14 15 15 16 17 18 19 18 16 15 15 17 20 22 23 25 27 28 27 27 25 23 21 20 19 19 19 18 17 17 17 18 18
7 7 7 7 7 5 4 3 3 3 4 4 4 3 3 3 3 3 3 3 2 2 2 4 5 6 8 10 14 17 18 19 19 19 19 19 17 14 11 10 10 11 11 10 9 9 8 9 9 10 10 11 12 13 14 15 15 16 18 19 18 17 15 16 17 19 21 24 25 27 28 28 27 25 24 21 20 19 19 19 18 17 17 17 17 18
7 7 6 6 6 5 3 3 2 2 3 4 4 4 4 3 3 3 2 2 2 2 2 3 4 5 7 8 12 15 17 18 18 18 19 20 18 15 11 9 10 10 10 9 9 8 7 7 7 8 9 10 11 12 14 14 15 16 17 18 18 18 16 15 16 18 20 23 25 27 28 28 27 25 24 22 20 19 19 19 18 17 16 16 16 17
7 7 7 5 4 4 3 3 2 2 3 3 4 4 4 4 4 3 3 3 3 2 2 3 3 4 5 6 9 13 17 18 18 19 20 20 19 16 12 9 9 9 9 8 8 7 6 6 6 7 7 8 9 11 13 14 15 16 17 18 19 19 17 16 16 17 19 21 23 25 26 26 25 24 23 21 19 18 18 18 18 18 17 17 16 16
7 7 7 5 4 4 3 2 2 3 3 4 4 4 4 4 4 3 3 3 3 2 2 2 3 3 4 5 8 12 16 18 19 19 20 21 20 17 13 9 8 9 8 7 7 6 6 6 6 6 6 7 8 10 12 13 14 16 17 19 19 19 19 17 15 16 17 19 20 21 22 22 22 22 22 20 19 18 18 19 19 18 18 18 17 17
6 6 6 5 4 3 2 2 3 4 4 4 4 4 4 3 3 3 3 3 3 2 2 2 2 2 3 4 7 11 15 17 19 19 20 20 20 18 15 11 9 8 8 7 7 7 7 7 7 7 7 6 7 8 11 13 14 15 17 19 20 20 20 17 16 15 15 16 17 18 18 18 19 19 20 19 19 19 19 19 19 19 18 18 19 19
4 4 4 4 3 2 1 2 4 6 6 5 5 4 4 3 3 3 4 3 3 3 2 2 2 2 3 4 6 10 13 15 16 17 18 18 18 17 15 12 10 9 9 8 8 8 8 8 8 8 7 7 7 7 9 11 13 15 16 18 19 20 20 18 16 15 14 14 14 14 15 16 16 17 18 18 18 19 19 19 19 19 18 18 19 20
5 4 3 2 2 2 2 4 5 6 6 6 6 5 5 4 3 3 3 3 3 3 3 2 2 2 2 3 4 6 8 9 11 12 13 14 14 15 14 13 11 10 10 10 10 10 9 9 9 9 9 8 7 7 8 10 12 14 16 18 19 19 20 19 17 15 14 13 12 12 12 14 15 16 16 17 17 18 18 19 19 18 17 17 18 20
6 5 5 5 4 4 3 4 5 5 6 5 5 6 6 7 6 5 4 4 3 2 2 2 2 2 2 2 3 4 5 6 7 8 9 9 9 10 12 12 11 11 12 12 12 11 11 10 10 10 9 9 8 8 8 9 11 13 16 17 18 19 19 19 18 16 14 13 12 11 11 12 13 14 14 15 15 16 17 18 19 18 17 16 16 18
6 6 5 5 5 4 3 4 4 4 5 5 4 5 6 7 8 8 7 6 5 5 4 3 3 2 2 2 2 3 4 6 8 9 10 10 10 10 11 11 10 10 12 12 13 13 12 12 11 10 10 10 9 9 9 9 10 12 14 16 17 18 18 18 18 17 15 13 12 11 10 11 12 12 12 13 14 14 15 17 18 19 19 17 16 16
6 6 5 4 4 4 3 3 3 3 5 4 4 4 5 6 6 7 8 7 7 7 6 6 5 4 3 3 2 3 3 4 6 8 9 11 12 13 12 11 10 9 10 12 13 13 13 13 12 11 11 10 10 9 9 9 10 11 13 15 16 17 17 18 17 17 15 14 13 12 11 11 11 11 11 11 12 13 13 14 16 18 19 19 18 17
5 5 4 4 4 4 4 4 3 3 4 5 5 5 5 5 5 5 6 7 7 7 7 7 6 5 4 4 4 4 3 4 4 5 5 7 9 10 10 9 8 8 8 10 11 13 14 14 13 12 11 11 10 10 9 9 9 10 12 14 15 16 17 18 18 17 16 16 15 15 14 13 12 11 10 10 10 11 12 13 14 15 17 19 19 19
4 4 4 4 4 4 4 5 5 5 5 6 6 6 5 5 5 4 4 5 6 6 7 6 6 5 4 4 4 4 4 4 4 4 4 4 5 6 6 6 6 6 6 7 7 9 12 13 13 13 12 11 11 10 10 9 9 10 11 13 14 15 16 17 18 18 18 18 17 17 17 16 14 12 11 10 9 10 10 11 12 13 14 17 18 18
4 4 4 4 4 5 5 6 6 6 6 5 5 5 5 5 5 5 4 5 5 6 6 6 5 5 4 3 3 3 3 3 3 3 4 4 4 5 5 5 5 4 4 5 5 6 8 9 10 10 12 12 11 11 10 9 9 9 10 12 14 15 16 17 18 19 19 19 18 18 18 17 15 14 12 10 10 10 10 11 11 12 12 14 15 16
5 5 5 5 5 5 5 6 6 5 5 5 5 5 5 5 5 5 5 5 5 5 5 5 5 4 3 3 3 3 3 3 3 3 4 3 4 4 5 5 4 4 4 4 5 5 7 7 7 7 9 11 11 11 10 9 9 9 10 11 13 15 16 16 18 19 20 19 17 16 16 15 15 13 12 11 10 10 10 11 12 12 13 13 13 13
4 5 5 5 5 5 5 5 5 5 5 5 5 5 5 5 5 5 5 5 5 5 5 5 4 3 2 2 2 2 2 3 3 3 3 3 3 3 5 4 4 4 4 4 4 5 5 6 6 6 7 10 11 12 12 10 9 9 10 11 13 15 16 17 18 19 19 18 16 14 13 13 13 12 12 11 10 10 10 11 12 13 13 13 12 11
4 4 4 5 5 5 5 5 5 5 5 5 5 5 5 5 5 5 5 4 4 4 4 4 4 3 2 2 1 1 2 3 3 3 2 2 3 3 4 4 3 4 4 4 4 4 5 5 6 6 7 9 11 13 13 11 10 10 10 11 12 14 16 18 19 19 19 18 16 14 13 13 12 12 12 11 11 11 11 12 12 13 13 13 12 11
4 4 4 5 5 4 4 4 4 5 5 5 5 5 5 4 4 4 4 4 4 4 3 3 3 3 3 2 1 2 5 6 6 5 4 3 3 3 3 3 3 3 4 4 4 4 5 5 6 6 6 10 12 13 14 13 12 11 10 11 12 14 16 17 19 20 21 20 18 16 14 13 13 12 12 12 12 12 12 12 13 13 13 13 13 12
4 4 4 4 4 4 4 4 4 5 5 5 6 6 6 5 5 4 4 4 4 4 4 4 3 3 3 3 3 3 5 6 6 6 6 4 4 3 2 2 3 4 4 4 4 4 4 5 6 7 8 11 13 14 14 14 13 12 11 11 12 13 15 17 19 21 22 22 21 19 16 15 14 13 12 12 12 12 12 12 12 12 12 11 11 11
4 4 4 4 4 4 3 3 4 5 6 6 6 6 6 5 5 5 4 4 4 3 3 4 4 4 4 5 5 5 5 5 6 6 5 4 4 3 2 2 3 4 4 3 2 2 2 4 5 7 9 12 14 15 15 14 14 13 12 12 12 13 14 16 18 20 21 22 21 19 17 16 15 14 13 12 11 11 11 11 11 12 12 14 15 18
4 4 4 4 4 4 3 3 4 6 7 7 6 5 5 5 5 5 5 5 4 4 4 4 5 5 4 5 6 6 5 5 5 5 4 3 3 2 2 2 1 1 2 1 1 1 2 3 4 5 8 12 14 15 16 15 15 14 14 13 13 13 14 15 16 17 19 19 19 18 17 15 14 13 13 12 12 13 14 15 16 18 20 22 24 27
4 4 4 5 5 4 4 4 5 6 8 7 6 5 5 5 6 6 6 5 5 5 5 5 5 6 6 7 8 8 6 5 5 5 4 3 3 2 2 2 1 1 1 0 1 1 1 2 3 5 7 12 15 16 16 16 16 15 15 14 14 14 14 15 15 16 17 18 18 17 16 14 14 14 14 15 17 18 20 22 23 25 27 29 31 33
4 4 4 4 4 4 4 4 4 5 6 6 5 4 4 4 5 6 6 6 5 5 6 6 6 7 7 8 8 9 8 7 6 6 5 3 3 2 2 2 2 2 1 1 1 1 1 2 3 4 7 13 16 17 17 17 16 16 16 15 15 15 14 15 15 16 16 17 17 17 16 16 16 17 19 21 23 25 26 28 29 30 31 32 33 34
5 4 4 4 4 4 4 4 4 4 5 4 4 3 3 4 5 5 5 5 5 5 5 6 6 7 7 7 7 8 8 7 6 6 4 3 3 2 1 1 2 2 2 2 1 1 1 1 2 3 5 11 15 17 18 17 17 17 16 16 15 15 14 15 15 16 16 17 17 17 18 19 21 22 25 27 28 29 31 31 32 33 33 33 34 34
6 6 5 6 7 8 7 7 7 7 6 5 4 3 4 4 5 5 5 5 5 5 5 6 6 6 5 5 6 6 6 6 6 5 4 2 2 2 1 1 1 1 2 2 2 1 1 1 1 1 3 8 13 17 18 17 17 17 17 16 16 15 15 16 17 17 17 18 19 20 22 24 26 28 29 31 32 32 33 33 34 34 34 33 33 33
10 10 11 12 13 14 14 13 13 12 12 9 6 5 4 5 5 5 4 4 5 5 5 5 5 5 5 4 5 5 4 3 3 3 2 1 1 1 1 1 1 1 1 2 2 2 2 2 2 1 1 5 10 14 17 17 17 16 16 16 16 16 17 19 20 21 21 22 23 24 26 28 30 31 32 33 34 34 35 35 35 34 34 32 32 31
16 16 17 17 17 17 17 16 16 16 16 15 12 9 6 5 4 4 4 5 5 5 5 5 5 5 4 4 4 4 3 2 2 2 2 1 0 1 1 1 1 1 1 1 2 3 3 3 3 2 2 1 5 9 15 16 16 16 16 17 18 20 21 23 25 25 26 27 27 28 30 31 32 33 34 35 35 36 36 36 36 35 32 29 27 26
17 17 17 18 18 17 17 16 16 16 16 17 16 14 9 6 4 5 5 5 5 5 5 4 5 5 4 4 5 4 3 2 2 3 3 1 1 1 1 1 1 0 1 2 2 3 4 4 3 3 3 1 2 6 11 13 15 16 17 19 21 23 25 27 29 30 30 31 31 32 33 33 34 35 35 36 37 37 37 37 36 33 29 24 19 18
15 16 16 16 16 16 15 14 14 15 16 16 16 14 9 5 4 4 4 5 5 5 5 4 4 4 4 6 6 6 4 2 2 4 4 1 1 1 1 1 0 0 1 2 2 4 5 4 4 3 3 2 2 4 6 9 12 14 17 21 24 26 28 30 32 33 33 34 34 34 35 35 35 36 36 37 37 37 37 35 32 28 23 19 16 15
11 11 11 12 13 12 11 10 11 12 14 15 15 13 9 5 4 4 4 4 5 5 5 5 4 4 5 5 6 5 3 1 2 4 5 2 1 2 2 1 0 1 1 1 2 3 3 3 4 4 3 4 4 5 5 6 8 10 14 19 22 25 29 32 33 34 35 35 36 36 36 37 37 37 37 37 37 36 35 32 27 22 17 16 15 14
8 8 7 8 8 7 7 7 7 9 11 12 12 10 8 6 4 4 4 4 4 4 4 5 5 4 4 4 4 3 1 1 3 5 7 3 0 2 2 1 0 2 2 1 2 3 2 2 3 3 4 5 6 6 6 6 7 9 11 13 16 21 28 31 32 33 33 34 35 36 37 37 37 37 37 36 36 35 34 31 25 20 15 15 15 15
7 7 6 6 6 5 5 5 6 6 7 8 8 8 7 6 5 5 4 4 4 4 4 5 5 5 4 4 4 4 2 2 4 7 8 4 1 1 2 1 1 2 2 2 1 3 4 2 1 2 3 5 6 7 7 8 8 9 11 12 13 17 25 27 28 28 29 31 33 35 36 36 36 36 35 35 34 33 32 30 26 20 16 16 16 16
7 6 6 6 6 5 5 5 5 6 6 6 6 6 6 6 6 6 5 4 4 4 4 5 5 5 5 5 6 5 5 4 5 7 9 6 3 1 2 2 1 2 2 2 1 3 5 4 3 2 3 5 6 6 8 8 8 9 11 12 12 14 18 20 21 21 22 24 27 29 31 32 32 32 32 32 31 31 30 29 26 22 18 16 16 16
7 7 7 7 6 6 6 6 6 6 6 6 6 6 6 6 6 6 6 5 4 4 4 4 5 5 5 5 6 6 6 5 5 7 7 5 3 1 2 2 1 1 2 0 2 4 5 5 4 4 4 4 5 6 6 7 7 8 9 11 11 11 12 13 15 16 17 17 18 19 21 23 25 27 27 28 28 28 28 28 26 23 20 18 17 16
7 7 7 7 7 7 8 8 8 8 7 7 7 7 7 6 6 6 6 6 5 5 4 4 5 5 5 6 6 6 6 5 6 7 6 5 3 2 2 2 2 1 0 2 3 4 5 5 5 6 6 5 4 5 5 5 6 6 7 9 9 9 9 10 12 13 14 14 14 13 13 14 16 18 20 23 25 27 28 27 26 24 22 20 18 16
7 8 8 8 8 8 9 9 9 9 8 7 7 7 7 7 7 6 6 6 6 6 6 5 5 5 6 6 7 8 8 7 7 8 7 5 3 3 1 2 2 2 0 2 4 5 6 6 6 7 7 7 5 4 4 4 5 6 7 8 8 8 8 9 10 12 13 13 13 12 11 11 12 13 16 23 26 28 29 28 27 26 24 22 19 16
8 8 9 8 8 9 9 9 8 8 8 8 8 7 8 7 7 7 7 6 6 6 6 7 7 7 8 7 8 9 9 8 8 9 8 5 4 3 1 1 2 2 1 2 3 5 7 7 7 6 6 6 6 5 4 4 5 6 7 7 7 8 7 8 9 10 12 13 12 12 11 12 12 14 17 24 26 27 28 28 28 27 26 24 23 21
8 9 9 9 9 8 9 8 8 8 8 8 8 8 8 8 8 8 7 7 7 7 7 6 7 8 10 11 11 11 11 11 11 11 10 6 4 3 2 1 3 3 2 1 2 4 6 8 8 7 6 6 6 7 6 6 6 6 6 7 7 7 7 7 8 9 11 12 13 13 12 12 12 13 14 16 16 16 18 18 20 22 24 24 24 24
9 9 9 9 9 9 8 8 8 8 8 8 8 8 8 9 9 8 7 7 7 7 7 7 7 8 10 11 12 12 11 11 11 11 9 6 5 4 1 2 3 3 4 2 1 3 5 7 8 8 8 8 7 7 6 6 7 7 7 7 7 7 7 6 7 8 10 12 13 13 11 10 10 10 10 10 10 11 12 12 13 14 16 16 18 20
9 9 9 9 9 9 8 8 8 8 8 8 8 9 8 8 8 8 7 7 7 7 7 8 8 7 8 8 8 8 8 7 7 6 5 5 5 4 2 4 5 4 4 3 1 1 3 5 7 9 10 9 9 8 6 6 7 9 11 9 7 6 6 6 6 6 7 10 12 12 11 10 10 10 10 9 9 9 10 9 9 10 10 10 11 12
9 9 9 9 9 9 9 8 8 8 8 8 7 7 7 8 8 8 8 7 7 7 7 8 7 7 6 5 4 4 6 6 6 4 0 3 5 4 4 7 6 5 4 3 2 1 2 4 7 8 9 10 11 11 9 8 8 9 11 10 9 8 7 7 7 8 8 9 10 11 12 12 12 12 11 11 10 9 9 9 9 9 8 7 7 8
10 9 8 8 8 8 8 8 9 9 8 7 7 7 7 8 8 8 8 8 8 7 7 7 7 6 5 4 4 5 7 8 8 7 4 1 4 6 9 9 8 6 4 3 3 3 2 4 6 8 9 10 10 10 8 8 8 9 10 10 11 11 10 9 8 7 9 10 10 11 13 13 12 12 12 12 10 10 10 10 11 11 9 7 6 6
9 8 8 8 8 8 9 9 9 8 8 7 7 7 7 7 8 8 8 7 8 8 8 7 7 6 5 4 5 6 7 9 9 9 7 4 7 10 13 13 11 9 6 4 3 3 3 3 4 6 7 9 10 11 12 10 9 8 8 9 10 10 8 6 5 6 9 10 10 11 11 12 11 11 11 11 10 9 9 11 12 12 10 9 8 7
8 8 8 8 8 8 8 8 8 8 8 8 8 8 7 8 8 8 8 7 7 7 7 7 6 5 5 5 6 6 6 8 9 9 9 9 10 13 15 15 14 12 9 6 4 2 2 3 3 4 5 7 9 11 12 11 9 7 5 6 8 9 9 7 7 7 8 9 10 10 11 11 11 11 11 11 10 9 9 9 9 9 10 9 9 9
7 8 8 8 8 8 9 9 8 8 8 8 8 8 8 8 8 8 7 7 7 7 7 7 6 5 5 6 6 6 6 6 7 8 8 11 13 16 16 15 14 13 11 8 6 4 2 3 3 4 5 7 9 10 11 11 10 8 7 8 9 10 10 8 8 9 9 10 10 10 11 11 12 12 12 11 10 9 9 9 9 9 8 8 9 9
8 8 9 8 8 9 9 9 9 8 8 8 8 8 8 8 8 7 8 8 7 7 7 6 6 5 6 6 6 5 5 6 6 6 6 8 10 12 13 13 13 13 12 10 9 7 5 4 3 4 6 7 8 9 9 10 10 10 10 10 10 10 10 9 9 9 10 10 10 10 10 11 12 13 12 12 11 10 9 9 9 9 8 8 8 8
9 9 9 9 9 9 9 9 9 9 8 8 8 8 8 8 8 8 8 8 7 7 6 6 6 6 6 6 6 6 6 6 6 5 5 6 7 9 11 12 13 14 14 13 11 10 9 7 5 3 5 7 9 9 8 9 10 11 10 10 10 10 10 9 9 9 9 9 10 10 10 11 12 13 13 12 11 10 9 9 8 8 7 7 8 8
9 9 9 9 9 9 9 9 9 9 9 9 8 8 8 9 9 9 7 8 7 7 7 6 6 6 7 7 6 6 6 6 6 5 5 5 5 6 8 10 11 13 15 15 14 13 11 10 9 7 5 5 7 9 9 9 9 9 9 9 10 10 11 10 9 8 8 9 9 9 9 10 11 13 13 13 12 11 9 9 8 7 7 7 7 8
8 9 9 9 9 9 9 9 9 9 9 9 9 8 8 9 10 10 7 7 7 7 7 7 7 7 7 7 7 7 7 6 6 5 5 4 4 3 5 7 9 11 13 14 13 12 10 11 12 12 10 7 7 8 9 9 8 8 8 9 9 10 10 9 8 8 8 8 9 9 8 8 9 11 13 14 13 12 11 10 8 7 6 6 7 7
9 8 9 9 9 9 9 9 9 9 9 10 9 9 8 8 8 8 7 7 7 6 6 7 7 7 7 7 7 7 7 7 6 6 5 5 3 2 3 5 8 10 10 10 9 8 7 8 10 13 16 15 11 8 7 8 8 8 8 8 9 9 10 9 8 8 8 9 10 11 11 10 9 9 12 14 14 13 12 10 9 7 6 6 6 7
9 9 9 9 9 9 9 9 9 9 10 10 9 9 8 8 8 7 7 7 7 7 7 7 7 7 8 8 8 8 8 7 7 6 6 5 4 3 2 3 6 7 8 8 7 5 4 5 6 9 14 18 18 13 6 6 7 8 8 8 8 8 9 9 9 9 10 10 10 10 11 11 10 9 10 12 13 13 12 11 9 7 5 5 6 7
Wind_Direction
278 281 280 277 275 277 279 290 299 305 302 296 287 279 279 274 269 267 275 279 284 297 319 325 327 327 326 323 323 324 323 321 317 313 309 304 295 281 257 239 231 228 226 217 203 190 185 190 195 200 204 204 200 194 188 182 180 182 187 195 197 195 191 189 189 188 187 187 192 199 205 209 210 210 208 201 194 190 190 192 194 194 193 191 187 182
276 277 276 274 273 275 281 299 311 313 307 304 300 294 290 282 274 271 270 277 286 304 327 332 331 329 325 320 321 322 321 318 314 310 306 302 295 283 260 235 221 215 214 210 202 192 185 189 194 199 203 202 198 193 187 182 179 180 184 192 196 196 192 189 188 188 187 185 187 193 200 206 209 211 209 203 196 191 190 192 194 194 193 190 187 182
279 278 277 277 277 280 287 306 313 310 302 301 300 298 296 293 288 286 285 295 307 324 339 337 332 327 322 318 320 320 319 315 311 306 303 300 295 286 267 237 215 204 201 198 193 187 182 188 194 199 203 202 197 191 185 182 180 181 184 191 196 198 196 192 191 191 191 189 189 192 196 202 207 210 210 204 198 192 190 191 193 194 192 190 187 183
276 275 274 275 276 279 286 299 306 307 303 297 296 296 297 299 298 298 299 306 316 325 332 332 329 325 319 317 319 319 316 312 308 304 300 297 293 287 273 244 218 202 194 189 185 183 181 189 196 200 204 203 199 193 187 183 182 183 186 192 197 201 201 198 196 195 197 197 197 197 198 201 204 206 208 203 197 191 189 190 192 193 192 190 188 184
267 266 267 268 271 276 286 296 308 315 313 305 298 293 290 291 292 294 296 300 304 310 317 326 326 321 315 316 316 315 312 309 305 301 297 294 291 287 278 253 225 206 196 190 186 185 187 194 200 204 206 206 202 197 191 187 185 185 187 192 197 201 204 202 199 198 199 201 203 204 203 203 203 204 205 201 195 190 187 189 192 193 191 190 189 189
259 254 254 258 265 275 296 325 346 345 334 319 306 292 280 273 274 279 283 288 290 292 299 308 308 307 304 307 309 308 307 305 303 300 295 292 289 285 278 260 235 213 202 198 195 194 195 200 204 207 210 209 206 200 196 192 188 186 187 191 196 200 203 202 201 199 199 200 201 203 203 203 203 203 204 200 195 189 186 188 191 192 191 189 189 191
276 260 250 254 263 282 329 25 19 8 351 338 324 311 293 279 269 265 267 272 273 272 278 279 279 281 287 295 300 302 303 303 302 299 294 290 287 283 276 262 241 220 207 204 203 203 202 203 205 208 210 211 209 205 201 196 191 188 187 189 193 197 199 200 201 200 199 197 197 197 198 200 202 204 206 202 195 189 185 187 190 191 191 188 188 190
320 324 333 342 351 1 23 39 29 16 359 348 339 334 331 326 310 288 272 267 262 258 260 263 265 268 271 283 290 295 297 300 301 299 294 290 286 280 273 259 241 222 210 207 207 206 206 205 205 207 209 210 211 209 206 201 195 191 188 188 190 192 194 197 199 200 199 195 192 191 191 195 199 204 208 205 199 191 185 186 188 191 192 188 187 188
332 339 353 8 13 13 13 23 20 12 0 352 348 349 353 351 346 338 330 315 300 285 271 273 277 281 273 273 277 281 284 288 291 292 291 290 286 279 271 259 242 223 210 208 207 207 207 206 205 205 206 208 210 212 211 206 200 195 191 189 188 188 188 192 196 198 196 192 189 187 187 191 196 201 207 209 204 196 187 185 186 189 194 192 189 188
339 343 350 6 15 15 8 5 3 1 359 353 357 6 12 2 354 347 342 340 338 335 327 328 329 325 312 293 280 276 277 280 280 281 281 278 276 273 266 257 244 226 212 209 207 207 207 205 204 203 204 206 209 211 213 211 206 201 195 191 188 186 185 189 193 195 195 193 190 188 187 190 193 198 203 209 208 203 194 187 185 186 191 195 195 191
344 347 352 2 8 11 7 359 354 353 356 355 5 19 28 15 360 347 340 337 337 337 339 341 342 342 337 328 310 291 280 278 278 278 278 272 267 262 256 249 239 227 215 211 208 207 206 205 203 202 202 203 206 209 212 213 210 206 201 195 190 187 185 189 192 195 197 198 198 197 196 195 196 197 200 205 208 208 203 194 187 184 186 194 197 196
348 348 352 358 1 1 1 357 355 356 1 3 7 12 15 12 1 345 335 330 330 332 334 336 336 334 329 322 313 300 286 277 277 278 279 272 264 257 250 243 235 225 217 212 209 207 206 204 202 201 200 201 203 206 210 212 211 209 206 200 195 190 188 191 195 198 201 203 205 206 205 204 203 200 198 200 202 205 205 201 193 187 184 191 196 198
351 349 352 358 1 1 359 359 1 4 8 10 6 1 355 353 347 338 327 323 325 326 327 326 324 320 311 302 296 289 282 277 275 276 277 271 261 252 244 237 229 220 213 210 209 208 205 202 201 199 198 199 200 203 205 209 210 209 207 203 199 194 190 192 196 199 203 205 207 208 209 208 207 204 200 196 195 196 200 200 196 189 181 187 192 196
355 353 354 360 4 5 5 5 5 5 5 5 360 351 339 336 335 333 328 325 323 322 318 315 311 306 294 281 274 271 272 273 273 272 268 264 254 245 238 232 222 211 202 204 207 206 201 199 200 199 197 196 198 200 202 205 207 207 206 203 201 197 193 192 194 198 202 205 206 205 206 205 204 201 196 190 186 187 191 193 192 189 183 185 188 192
359 358 359 2 6 7 7 6 4 1 357 353 346 339 332 334 336 337 335 331 327 324 320 313 304 292 274 263 261 266 272 273 269 263 259 258 253 245 238 230 219 205 197 201 204 202 194 195 198 199 196 196 196 196 196 200 203 203 203 202 200 199 196 193 194 196 199 201 200 198 196 196 196 194 189 182 178 178 181 184 185 185 184 183 185 188
1 1 1 2 4 5 5 2 359 353 347 343 340 339 339 339 340 339 337 332 329 327 328 325 317 302 276 265 265 273 287 282 275 265 258 258 258 253 246 232 217 204 198 200 201 198 192 194 196 197 195 193 192 191 189 194 196 197 197 198 198 198 197 195 194 194 196 198 196 192 186 185 184 184 182 177 174 174 176 178 180 181 182 183 184 185
4 3 1 360 1 1 359 357 354 348 341 339 338 338 340 337 335 333 332 330 328 328 332 332 324 313 301 298 298 318 337 319 305 292 280 271 262 257 253 240 220 204 198 200 199 196 190 192 194 196 195 191 188 187 186 188 189 190 192 193 194 195 195 194 193 192 193 195 194 189 181 178 177 177 178 175 175 176 177 179 180 181 182 184 186 188
6 4 360 359 356 353 351 352 349 345 339 337 336 335 334 332 329 327 327 327 326 325 327 323 313 303 304 300 321 6 9 344 328 314 299 281 266 259 257 250 232 214 202 202 201 197 192 192 194 195 193 185 183 183 183 184 184 185 186 188 190 191 192 192 191 190 191 193 193 190 183 179 177 177 177 177 177 178 180 182 183 184 184 188 190 191
4 4 359 354 347 342 343 350 348 343 339 337 334 331 330 330 329 327 325 323 320 318 316 310 299 290 287 287 306 342 3 343 323 307 293 276 265 263 274 258 237 220 205 200 198 196 196 194 193 191 185 180 179 180 180 181 181 181 182 184 186 187 189 189 189 189 189 190 189 187 182 181 180 179 178 177 177 178 180 181 182 182 178 180 176 170
359 1 358 345 335 331 338 351 349 341 333 328 325 325 327 329 328 326 322 318 313 306 300 296 289 285 282 288 299 316 340 331 313 295 277 265 261 270 303 281 243 216 194 190 194 207 208 200 191 183 177 176 176 177 179 179 179 179 179 180 182 183 184 184 184 183 182 182 180 178 175 176 177 178 178 174 172 170 168 166 162 156 150 145 140 134
353 357 353 337 328 327 338 350 344 334 325 321 320 322 328 329 327 323 319 315 309 302 294 287 285 287 293 293 294 299 315 313 302 289 276 266 268 284 322 317 288 210 166 176 238 272 241 212 196 185 177 175 175 176 178 179 178 178 178 178 178 178 177 174 171 168 167 165 165 164 164 168 171 173 170 162 156 150 145 140 135 131 128 126 123 121
346 348 342 332 327 328 337 340 334 327 321 318 320 326 335 332 326 320 316 312 307 300 294 287 286 289 290 287 285 286 288 280 275 275 279 277 282 296 332 337 346 7 109 221 296 287 247 211 197 185 175 173 174 176 178 178 178 178 177 176 174 172 168 160 154 151 149 149 150 152 154 158 159 157 152 144 139 134 130 127 124 122 121 120 119 118
342 342 337 332 330 331 335 333 326 320 318 317 321 331 341 332 322 313 309 305 300 295 289 285 283 280 276 273 273 273 266 254 251 257 266 269 278 293 330 347 351 350 347 334 316 301 213 191 188 181 172 173 174 176 178 179 179 177 176 174 171 167 161 152 145 140 139 140 142 145 147 148 146 142 137 133 130 127 124 122 121 119 119 118 118 117
344 343 342 340 339 339 340 337 331 325 321 320 326 338 349 331 316 304 298 296 293 289 285 281 280 276 270 265 265 264 256 243 239 242 251 256 266 282 324 358 356 344 333 335 335 338 121 150 166 172 169 174 176 178 179 180 179 177 175 172 168 162 155 145 139 135 134 136 138 139 140 138 136 133 130 127 125 123 121 120 118 117 117 116 116 116
351 351 351 351 353 355 356 352 346 342 339 337 341 352 358 336 318 305 298 300 303 304 302 297 293 288 285 277 273 267 259 243 236 235 239 245 265 287 335 11 6 348 337 334 339 360 75 86 98 144 166 176 179 180 180 179 178 176 173 169 163 155 146 138 133 130 129 131 132 133 134 132 130 128 126 124 123 121 119 118 116 115 114 114 114 114
357 358 359 359 0 1 1 357 353 351 351 351 355 4 8 344 327 319 320 327 327 324 319 311 303 297 294 286 279 275 271 256 245 240 234 222 259 316 358 15 18 13 6 352 2 24 68 65 57 57 134 181 182 182 180 178 176 172 169 163 155 147 139 133 129 127 126 127 128 128 129 128 127 125 124 122 121 119 118 116 114 113 112 110 110 111
358 359 0 1 2 2 2 359 355 353 354 356 1 8 13 353 340 336 342 340 333 326 320 313 307 301 294 283 277 276 280 293 300 296 278 222 152 39 13 15 22 36 51 37 37 48 61 53 40 28 24 187 186 182 178 174 170 165 161 154 148 141 135 131 128 126 125 125 125 125 125 125 124 123 122 121 119 118 116 115 113 111 109 108 107 108
356 358 0 1 1 1 0 357 355 354 356 359 3 8 12 360 348 344 343 335 329 323 319 316 312 309 304 298 294 290 290 309 319 313 303 272 140 91 45 26 19 46 96 73 60 53 52 43 29 16 7 19 164 169 168 163 159 154 150 145 141 137 133 130 128 126 125 125 124 124 123 123 122 121 120 119 118 117 115 114 112 110 108 107 105 104
353 355 357 358 359 358 357 354 353 353 356 359 2 5 7 359 348 339 332 328 324 322 319 315 313 311 308 303 297 291 280 290 314 314 304 289 128 103 81 52 343 250 149 96 70 54 43 31 19 11 8 36 79 121 140 145 144 142 139 137 135 133 131 129 127 126 126 126 125 124 123 122 121 120 119 118 117 116 115 113 112 110 108 106 106 106
349 351 353 354 354 353 352 349 349 351 355 359 0 0 0 352 339 328 321 321 322 321 318 314 312 310 309 301 292 281 262 277 338 331 318 308 121 110 100 87 275 260 223 122 88 67 46 23 11 10 18 48 64 77 94 113 120 124 127 128 128 128 127 126 125 125 125 125 125 124 124 122 121 121 120 119 117 116 115 113 112 110 108 107 107 106
344 346 347 347 347 346 344 344 345 349 353 357 357 356 352 344 333 322 317 318 318 317 314 310 307 306 305 299 290 282 278 341 1 354 340 323 47 112 107 100 295 284 273 210 125 105 87 31 6 7 28 57 65 69 74 87 99 108 114 117 120 122 122 122 121 121 122 122 123 123 123 122 122 121 120 119 118 117 116 114 113 111 110 110 109 108
341 343 344 343 341 340 341 343 345 348 352 354 353 349 344 338 331 324 318 315 314 310 307 303 300 297 292 284 282 285 294 311 349 356 346 328 328 88 89 71 351 306 293 263 172 129 116 101 52 32 50 68 70 70 69 78 91 102 109 110 112 115 118 117 117 117 117 118 119 119 120 120 120 120 120 119 118 117 117 116 116 115 115 114 113 112
341 342 343 343 343 343 344 346 349 351 354 352 348 343 338 334 330 326 319 313 308 303 300 297 295 292 287 278 273 271 275 288 327 345 344 326 320 24 71 54 10 316 300 286 136 113 111 116 113 95 76 75 72 70 67 72 83 96 105 108 110 112 114 113 113 113 113 114 114 115 115 116 116 117 117 117 116 116 116 116 117 118 120 118 117 117
343 345 347 348 347 347 348 350 352 354 355 351 345 340 334 330 327 323 318 312 304 297 291 287 287 287 287 283 277 274 273 281 311 332 340 324 317 342 63 56 24 327 304 257 111 107 105 113 116 112 95 79 68 63 60 64 74 86 98 105 109 111 112 112 111 112 112 111 111 111 111 112 112 112 112 113 113 113 113 113 115 116 116 119 121 122
347 350 352 352 351 351 351 353 354 354 352 348 342 336 331 328 324 320 316 311 304 295 284 277 274 274 276 278 280 280 281 286 304 318 324 314 309 323 39 46 30 357 280 148 133 123 114 115 118 118 113 96 76 60 51 56 66 76 86 95 100 104 108 110 112 113 113 112 111 111 110 109 108 108 108 108 108 108 108 108 109 110 110 113 116 119
352 354 355 354 353 352 352 352 351 350 348 343 338 332 329 327 324 320 315 309 303 297 290 280 271 265 261 263 268 273 279 285 294 300 300 294 293 304 358 38 35 25 118 155 146 134 124 120 117 116 113 108 96 76 53 55 63 72 77 84 88 93 96 103 109 113 113 112 112 111 111 109 107 106 105 105 104 104 103 103 103 104 104 105 106 107
356 356 356 355 354 352 350 349 348 346 343 338 333 330 329 327 324 321 315 310 304 300 296 289 280 269 261 258 258 262 269 276 281 282 279 272 269 274 293 48 45 37 51 160 154 140 128 124 120 116 110 108 106 103 95 84 78 75 75 79 83 87 89 95 103 108 110 110 111 111 111 110 108 107 106 104 102 101 99 99 98 98 98 98 98 98
358 357 355 354 353 351 349 346 343 340 336 333 330 328 328 327 324 321 316 311 306 302 300 297 289 279 270 264 260 258 262 266 268 267 263 253 247 249 248 76 52 34 24 126 158 150 137 131 128 125 114 104 103 107 115 111 100 91 83 79 79 81 85 91 98 104 107 108 108 108 107 107 107 107 106 104 101 99 97 95 94 94 94 94 93 93
358 356 353 352 350 348 345 341 337 333 330 328 328 328 328 326 324 321 318 313 310 308 306 301 294 285 275 268 264 263 265 264 260 255 245 232 229 231 213 94 66 43 25 29 136 158 146 136 132 130 126 117 110 107 107 108 108 106 103 89 78 72 73 81 90 98 105 107 106 105 102 101 101 101 101 99 99 98 98 97 96 95 95 94 93 91
356 354 350 349 346 343 340 336 331 328 325 325 327 329 330 330 329 327 324 322 320 318 314 308 299 288 276 269 270 276 284 280 272 256 223 208 212 216 160 92 79 60 32 21 23 153 147 131 126 126 127 124 122 119 114 112 115 118 117 106 93 80 69 72 79 87 95 102 104 105 103 99 96 95 93 90 90 92 95 97 97 97 97 101 101 98
353 351 347 344 341 338 335 331 328 326 326 328 331 334 337 337 335 333 332 332 331 331 329 322 314 302 286 279 288 309 326 331 332 332 268 189 191 177 101 88 80 67 39 22 20 48 124 124 123 121 120 121 121 120 119 119 118 117 114 110 108 102 88 81 82 87 91 96 100 103 104 100 95 92 89 86 83 82 86 92 94 93 88 90 98 104
351 348 343 340 338 336 333 331 330 330 331 334 338 341 342 341 339 337 336 337 338 338 338 333 327 321 315 321 336 351 1 359 358 358 6 115 136 114 91 84 77 66 46 33 34 49 82 113 122 124 126 125 122 118 113 110 109 108 107 111 110 105 91 82 83 90 95 96 98 100 100 98 95 92 90 87 84 81 79 83 87 89 88 86 86 91
348 344 340 338 336 334 332 333 334 337 339 342 345 346 345 343 340 339 338 337 338 339 340 335 330 326 330 346 359 7 9 6 4 5 13 50 86 90 85 81 76 67 52 39 37 49 65 87 104 115 122 124 122 119 117 113 109 107 107 116 118 114 104 97 91 91 92 94 94 94 95 94 92 90 86 83 80 77 74 75 77 79 83 87 87 84
343 340 339 339 338 338 339 341 342 343 343 345 347 347 346 344 342 341 341 338 339 340 343 338 332 333 348 2 8 9 8 5 7 13 23 47 70 82 84 81 77 70 57 43 32 37 61 74 84 96 108 114 115 115 116 116 114 111 105 107 109 110 113 115 110 101 92 90 90 92 94 97 95 91 85 81 76 73 72 72 72 73 76 81 86 87
343 344 344 344 344 345 346 345 345 344 345 346 347 348 346 345 345 345 345 341 341 343 347 344 343 348 5 9 9 8 6 7 11 18 26 46 63 75 81 81 79 74 65 49 32 20 39 74 90 97 102 107 109 111 113 114 112 106 99 94 91 91 94 99 102 102 100 97 96 98 101 104 102 97 90 84 80 76 75 77 78 80 80 83 88 91
350 349 348 347 348 348 347 346 345 345 345 347 349 349 347 346 346 347 347 344 344 346 349 352 359 7 12 9 6 6 6 9 12 18 26 39 54 65 75 78 80 79 74 57 39 23 18 37 81 109 111 105 102 101 106 110 109 106 102 100 99 97 95 94 95 98 102 102 103 106 109 106 101 96 93 90 86 80 75 76 78 81 83 85 88 90
352 351 349 348 348 348 348 347 346 346 347 349 349 350 349 348 349 350 349 348 348 349 352 359 9 16 18 13 9 8 9 10 12 17 26 38 54 68 78 80 81 80 79 68 52 36 24 22 31 72 112 110 106 101 98 102 105 107 109 108 106 103 101 99 99 99 100 102 107 112 114 106 99 96 97 95 91 84 76 72 71 73 76 82 85 86
352 351 349 348 348 348 348 348 348 348 348 349 349 349 350 352 354 355 352 350 351 353 358 4 12 17 19 16 13 10 11 10 11 13 20 30 49 70 84 88 87 84 81 75 64 51 37 32 29 32 51 92 106 107 104 99 99 102 106 106 104 102 100 101 102 102 100 101 106 112 113 107 106 105 105 100 94 88 81 73 67 63 65 73 80 84
353 352 350 349 349 350 349 349 349 349 349 350 350 349 349 352 356 358 355 353 354 358 3 7 12 17 19 16 13 11 11 11 10 11 13 16 29 61 90 97 97 93 88 81 72 60 46 42 39 36 32 46 75 96 102 99 97 97 99 99 100 100 100 100 100 100 99 98 99 99 97 99 103 107 108 102 98 93 87 80 71 63 60 67 75 81
355 355 353 351 351 351 350 349 349 349 350 350 350 349 348 351 355 358 357 357 360 3 6 9 13 18 20 17 14 11 11 10 10 10 9 2 2 22 82 104 106 103 97 90 81 68 51 45 43 41 37 37 44 63 91 96 97 97 95 95 97 99 100 98 97 96 96 95 94 94 93 93 95 99 100 100 99 97 92 85 77 68 60 65 73 80
355 356 356 353 352 352 350 350 351 351 350 350 350 349 348 351 354 358 0 2 4 6 8 11 15 20 23 20 16 13 12 11 11 10 5 356 349 351 25 100 112 113 108 104 96 83 62 49 43 40 35 32 32 37 65 86 98 101 98 96 96 99 100 98 96 94 92 92 93 93 93 94 95 96 99 101 101 100 96 92 86 78 66 67 74 82